[[{"header":{"parameterUnit":"m.s-1","parameterCategory":2,"la1":30.2992,"la2":30.254,"lo1":-89.0895,"lo2":-89.0443,"dy":0.0025,"dx":0.0025,"nx":19,"ny":19,"refTime":"2026-05-24T03:00:00:Z","depth":"0","parameterNumber":2,"parameterNumberName":"U-component_of_CURRENTS"},"data":[0,0,0,-0.1202,-0.1202,-0.122,-0.122,-0.1136,-0.1135,0,0,0,0,0,0,0,0,0,0,0,-0.1186,-0.1186,-0.1202,-0.1203,-0.122,-0.122,-0.1136,-0.1135,0,0,0,0,0,0,0,0,0,0,0,-0.1186,-0.1186,-0.1186,-0.1203,-0.122,-0.122,-0.1136,-0.1148,0,0,0,0,0,0,0,0,0,0,-0.1144,-0.1149,-0.1186,-0.1186,-0.1203,-0.122,-0.122,-0.115,-0.1147,-0.1099,0,-0.1101,0,-0.1119,-0.1127,-0.1127,0,0,0,-0.1197,-0.1152,-0.1155,-0.1186,-0.1203,-0.122,-0.1211,-0.1149,-0.1146,-0.1095,-0.11,-0.1098,-0.1118,-0.1126,-0.1126,-0.0995,-0.0995,0,0,-0.1196,-0.1187,-0.1158,-0.1154,-0.1204,-0.121,-0.1211,-0.1148,-0.1141,-0.11,-0.1097,-0.1116,-0.1125,-0.1125,-0.0996,-0.0995,0,0,0,-0.1197,-0.1186,-0.1194,-0.1156,-0.117,-0.1211,-0.1212,-0.1144,-0.1146,-0.1096,-0.1115,-0.1125,-0.1123,-0.0997,-0.0996,-0.1053,0,0,0,-0.1196,-0.1188,-0.1193,-0.1188,-0.1172,-0.1173,-0.1209,-0.1151,-0.1145,-0.1116,-0.1125,-0.1122,-0.0997,-0.0996,-0.1053,-0.11,0,0,0,-0.1186,-0.1187,-0.1188,-0.1188,-0.12,-0.1175,-0.1175,-0.115,-0.1156,-0.1126,-0.1122,-0.0998,-0.0996,-0.1053,-0.1099,-0.1123,0,0,0,-0.1177,-0.1177,-0.1188,-0.1188,-0.1199,-0.1193,-0.1176,-0.1162,-0.1139,-0.1124,-0.0997,-0.0996,-0.1053,-0.1098,-0.1122,-0.1138,-0.1146,0,0,-0.1174,-0.1176,-0.1177,-0.1187,-0.1196,-0.119,-0.1178,-0.1142,-0.1096,-0.1011,-0.1009,-0.1053,-0.1099,-0.1123,-0.1059,-0.1069,0,0,0,-0.1174,-0.118,-0.118,-0.119,-0.1183,-0.1188,-0.1157,-0.1126,-0.1066,-0.1077,-0.1008,-0.1035,-0.1049,-0.1054,-0.1061,-0.0979,-0.0989,-0.099,-0.099,-0.117,-0.1178,-0.1188,-0.1198,-0.1192,-0.1175,-0.116,-0.1105,-0.1058,-0.1029,-0.1048,-0.1062,-0.1064,-0.107,-0.0984,-0.0996,-0.0996,-0.0996,-0.0996,-0.1187,-0.1198,-0.121,-0.1224,-0.122,-0.1206,-0.116,-0.1134,-0.1092,-0.1046,-0.1057,-0.1072,-0.1082,-0.0987,-0.0999,-0.0999,-0.0998,-0.0998,-0.0998,-0.1191,-0.12,-0.1214,-0.1246,-0.1257,-0.1243,-0.1258,-0.1215,-0.1151,-0.1159,-0.1152,-0.1151,-0.11,-0.1162,-0.1162,-0.1163,-0.1163,-0.1163,-0.1163,-0.119,-0.1208,-0.124,-0.1272,-0.1299,-0.1324,-0.1322,-0.1318,-0.1283,-0.1222,-0.1221,-0.108,-0.1112,-0.1143,-0.1168,-0.1167,-0.1167,-0.1166,-0.1166,-0.1192,-0.1206,-0.1256,-0.129,-0.1359,-0.1356,-0.1397,-0.1393,-0.1392,-0.1371,-0.1174,-0.1241,-0.1231,-0.1223,-0.1254,-0.1307,-0.1307,-0.1307,-0.1307,-0.1189,-0.1202,-0.1263,-0.1322,-0.1383,-0.1372,-0.1344,-0.1304,-0.124,-0.1171,-0.1184,-0.1128,-0.1126,-0.1105,-0.11,-0.1126,-0.1146,-0.1145,-0.1145,-0.119,-0.1211,-0.124,-0.1303,-0.138,-0.1351,-0.1227,-0.1092,-0.1071,-0.1128,-0.1068,-0.1075,-0.0979,-0.0983,-0.0936,-0.0936,-0.0974,0,0]},{"header":{"parameterUnit":"m.s-1","parameterCategory":2,"la1":30.2992,"la2":30.254,"lo1":-89.0895,"lo2":-89.0443,"dy":0.0025,"dx":0.0025,"nx":19,"ny":19,"refTime":"2026-05-24T03:00:00:Z","depth":"0","parameterNumber":3,"parameterNumberName":"V-component_of_CURRENTS"},"data":[0,0,0,-0.0011,-0.0012,-0.0054,-0.0054,-0.0071,-0.007,0,0,0,0,0,0,0,0,0,0,0,0.0004,0.0004,-0.0011,-0.0012,-0.0054,-0.0054,-0.0071,-0.007,0,0,0,0,0,0,0,0,0,0,0,0.0004,0.0004,0.0004,-0.0012,-0.0054,-0.0054,-0.0071,-0.0049,0,0,0,0,0,0,0,0,0,0,-0.0013,-0.0005,0.0004,0.0004,-0.0012,-0.0054,-0.0054,-0.0049,-0.005,-0.0039,0,-0.0044,0,-0.0055,-0.007,-0.007,0,0,0,-0.0016,-0.0004,-0.0012,0.0004,-0.0012,-0.0054,-0.0036,-0.005,-0.0052,-0.0041,-0.0045,-0.0046,-0.0055,-0.007,-0.007,-0.0006,-0.0005,0,0,-0.0014,-0.0007,-0.0011,-0.0013,-0.002,-0.0035,-0.0037,-0.0052,-0.0053,-0.0045,-0.0046,-0.0055,-0.007,-0.007,-0.0007,-0.0006,0,0,0,-0.0004,-0.0005,-0.0014,-0.0012,-0.0021,-0.0036,-0.0039,-0.0053,-0.0055,-0.0046,-0.0056,-0.007,-0.007,-0.0007,-0.0006,0.0013,0,0,0,-0.0003,0.0001,-0.0013,-0.0009,-0.0021,-0.0043,-0.004,-0.0054,-0.0056,-0.0055,-0.007,-0.007,-0.0008,-0.0007,0.0011,0.0009,0,0,0,0.0005,0.0002,-0.0002,-0.0009,-0.0025,-0.0043,-0.0047,-0.0055,-0.0061,-0.007,-0.007,-0.0009,-0.0007,0.0009,0.0007,0.0037,0,0,0,0.0012,-0.0001,-0.0002,-0.001,-0.0024,-0.0028,-0.0047,-0.0054,-0.006,-0.007,-0.0008,-0.0006,0.0008,0.0005,0.0035,0.0034,0.0042,0,0,-0.0002,-0.0002,-0.0005,-0.0007,-0.0011,-0.0023,-0.0009,-0.0028,-0.0027,-0.0003,-0.0002,0.0011,0.0007,0.0036,0.0128,0.0133,0,0,0,-0.0007,-0.0015,-0.0013,-0.0015,-0.0011,0.0001,-0.0011,0.0003,0.0025,-0.0023,0.004,0.0036,0.0054,0.0051,0.0056,0.0081,0.0001,0.0001,0.0001,-0.0035,-0.0024,-0.003,-0.0017,-0.0003,0.002,0.004,0.0063,0.0054,0.0083,0.0073,0.0136,0.0135,0.0138,0.0165,0.0103,0.0103,0.0103,0.0103,-0.0073,-0.0079,-0.0046,-0.0052,-0.0008,0.0013,0.0081,0.0095,0.0146,0.013,0.0146,0.0097,0.0144,0.0171,0.0105,0.0104,0.0104,0.0104,0.0104,-0.0105,-0.0105,-0.0103,-0.0094,-0.0054,-0.0001,0.0056,0.0109,0.0156,0.018,0.018,0.018,0.0183,0.0189,0.0189,0.0189,0.019,0.019,0.019,-0.0145,-0.0139,-0.0159,-0.0138,-0.0124,-0.007,0.0036,0.0092,0.0173,0.0203,0.0204,0.0219,0.0162,0.0136,0.0192,0.0192,0.0191,0.0191,0.0191,-0.0194,-0.019,-0.0228,-0.023,-0.019,-0.0131,-0.0037,0.0099,0.017,0.0213,0.0272,0.0224,0.0217,0.0213,0.0189,0.0255,0.0255,0.0255,0.0255,-0.0228,-0.0228,-0.0283,-0.0292,-0.0259,-0.016,-0.0052,0.0092,0.024,0.0299,0.0314,0.0298,0.0294,0.029,0.0284,0.0262,0.0345,0.0345,0.0345,-0.0264,-0.0281,-0.0324,-0.0327,-0.0289,-0.0177,-0.0056,0.0088,0.0268,0.0352,0.0353,0.0349,0.0327,0.0319,0.031,0.03,0.0262,0,0]}],[{"header":{"parameterUnit":"m.s-1","parameterCategory":2,"la1":30.2992,"la2":30.254,"lo1":-89.0895,"lo2":-89.0443,"dy":0.0025,"dx":0.0025,"nx":19,"ny":19,"refTime":"2026-05-24T03:00:00:Z","depth":"2","parameterNumber":2,"parameterNumberName":"U-component_of_CURRENTS"},"data":[0,0,0,-0.1009,-0.101,-0.1055,-0.1055,-0.0994,-0.0993,0,0,0,0,0,0,0,0,0,0,0,-0.0989,-0.099,-0.1009,-0.1011,-0.1055,-0.1055,-0.0994,-0.0993,0,0,0,0,0,0,0,0,0,0,0,-0.0989,-0.099,-0.099,-0.1011,-0.1055,-0.1055,-0.0995,-0.0989,0,0,0,0,0,0,0,0,0,0,-0.096,-0.0954,-0.099,-0.099,-0.1011,-0.1055,-0.1055,-0.099,-0.0989,-0.0943,0,-0.0955,0,-0.0974,-0.0987,-0.0987,0,0,0,-0.1004,-0.0954,-0.0975,-0.099,-0.1012,-0.1055,-0.1033,-0.099,-0.0989,-0.0941,-0.0954,-0.0953,-0.0973,-0.0987,-0.0986,-0.0842,-0.0841,0,0,-0.1002,-0.0985,-0.0976,-0.0975,-0.1027,-0.1032,-0.1035,-0.0991,-0.0983,-0.0954,-0.0952,-0.0972,-0.0986,-0.0985,-0.0843,-0.0842,0,0,0,-0.0999,-0.0983,-0.1007,-0.0976,-0.0995,-0.1033,-0.1036,-0.0985,-0.0996,-0.0952,-0.0972,-0.0986,-0.0984,-0.0844,-0.0843,-0.0851,0,0,0,-0.0997,-0.0982,-0.1006,-0.0994,-0.0996,-0.1005,-0.1031,-0.0999,-0.0996,-0.0972,-0.0986,-0.0984,-0.0845,-0.0843,-0.0853,-0.0868,0,0,0,-0.0987,-0.0981,-0.099,-0.0993,-0.1018,-0.1007,-0.1015,-0.1,-0.1007,-0.0987,-0.0983,-0.0846,-0.0844,-0.0855,-0.087,-0.0873,0,0,0,-0.0962,-0.0963,-0.0989,-0.0984,-0.1017,-0.1006,-0.1016,-0.1009,-0.0993,-0.0985,-0.0845,-0.0843,-0.0856,-0.0871,-0.0874,-0.087,-0.0866,0,0,-0.0948,-0.0961,-0.0955,-0.098,-0.097,-0.1,-0.0965,-0.0961,-0.0937,-0.0852,-0.085,-0.0853,-0.087,-0.0873,-0.0748,-0.0748,0,0,0,-0.094,-0.0939,-0.0937,-0.094,-0.0943,-0.0942,-0.0941,-0.0922,-0.087,-0.092,-0.0807,-0.0816,-0.0819,-0.0817,-0.0815,-0.0833,-0.0833,-0.0833,-0.0833,-0.0899,-0.0906,-0.0889,-0.0897,-0.0891,-0.0892,-0.0882,-0.0845,-0.0827,-0.0795,-0.079,-0.0751,-0.0745,-0.0745,-0.0743,-0.0743,-0.0743,-0.0743,-0.0743,-0.0867,-0.0868,-0.0858,-0.0862,-0.0863,-0.0845,-0.0807,-0.0808,-0.0757,-0.0742,-0.0744,-0.0782,-0.0744,-0.0743,-0.0743,-0.0743,-0.0743,-0.0743,-0.0743,-0.0857,-0.0862,-0.0864,-0.0872,-0.0858,-0.085,-0.0819,-0.0792,-0.0762,-0.0758,-0.0753,-0.0753,-0.0795,-0.0756,-0.0756,-0.0756,-0.0756,-0.0757,-0.0757,-0.0869,-0.086,-0.0885,-0.0895,-0.0894,-0.0879,-0.0839,-0.0817,-0.0784,-0.0757,-0.0757,-0.0756,-0.0755,-0.0793,-0.0757,-0.0757,-0.0757,-0.0757,-0.0757,-0.0876,-0.0904,-0.0921,-0.0933,-0.0908,-0.0857,-0.085,-0.0814,-0.0803,-0.0788,-0.0756,-0.0756,-0.0759,-0.0758,-0.0795,-0.0762,-0.0762,-0.0762,-0.0762,-0.0895,-0.0908,-0.091,-0.0894,-0.0876,-0.082,-0.0735,-0.0629,-0.0629,-0.057,-0.0577,-0.0552,-0.0558,-0.0548,-0.0553,-0.0584,-0.0495,-0.0495,-0.0494,-0.0892,-0.0898,-0.0878,-0.0864,-0.0829,-0.0757,-0.0624,-0.0462,-0.042,-0.0475,-0.0449,-0.076,-0.0745,-0.0745,-0.0748,-0.0748,-0.0806,0,0]},{"header":{"parameterUnit":"m.s-1","parameterCategory":2,"la1":30.2992,"la2":30.254,"lo1":-89.0895,"lo2":-89.0443,"dy":0.0025,"dx":0.0025,"nx":19,"ny":19,"refTime":"2026-05-24T03:00:00:Z","depth":"2","parameterNumber":3,"parameterNumberName":"V-component_of_CURRENTS"},"data":[0,0,0,-0.0091,-0.0091,-0.0123,-0.0123,-0.0147,-0.0147,0,0,0,0,0,0,0,0,0,0,0,-0.0078,-0.0078,-0.0091,-0.0091,-0.0123,-0.0123,-0.0147,-0.0147,0,0,0,0,0,0,0,0,0,0,0,-0.0078,-0.0078,-0.0078,-0.0092,-0.0123,-0.0123,-0.0147,-0.0129,0,0,0,0,0,0,0,0,0,0,-0.0101,-0.0096,-0.0078,-0.0078,-0.0092,-0.0123,-0.0123,-0.0128,-0.013,-0.0127,0,-0.0127,0,-0.0136,-0.0148,-0.0148,0,0,0,-0.0097,-0.0094,-0.0095,-0.0078,-0.0092,-0.0123,-0.011,-0.0129,-0.0131,-0.0129,-0.0127,-0.0129,-0.0136,-0.0148,-0.0148,-0.018,-0.0181,0,0,-0.0095,-0.0092,-0.0094,-0.0096,-0.0093,-0.0109,-0.0111,-0.0131,-0.0134,-0.0127,-0.0129,-0.0137,-0.0148,-0.0148,-0.018,-0.018,0,0,0,-0.0086,-0.0091,-0.0092,-0.0095,-0.0101,-0.011,-0.0112,-0.0133,-0.0131,-0.013,-0.0137,-0.0148,-0.0148,-0.018,-0.018,-0.0216,0,0,0,-0.0086,-0.0085,-0.0091,-0.0091,-0.01,-0.0121,-0.0114,-0.013,-0.0133,-0.0137,-0.0148,-0.0149,-0.018,-0.018,-0.0214,-0.0239,0,0,0,-0.0077,-0.0085,-0.0085,-0.009,-0.0101,-0.0121,-0.0121,-0.0131,-0.0137,-0.0148,-0.0149,-0.0179,-0.018,-0.0213,-0.0236,-0.0234,0,0,0,-0.0079,-0.0098,-0.0085,-0.0109,-0.0101,-0.0142,-0.0121,-0.0134,-0.0142,-0.0148,-0.018,-0.018,-0.0212,-0.0235,-0.0233,-0.0168,-0.0168,0,0,-0.0108,-0.0101,-0.0116,-0.0106,-0.0148,-0.0138,-0.0196,-0.0179,-0.0153,-0.0172,-0.0173,-0.0215,-0.0236,-0.0234,-0.0204,-0.0204,0,0,0,-0.0129,-0.0148,-0.0156,-0.0175,-0.0186,-0.022,-0.0215,-0.0212,-0.0205,-0.0161,-0.0218,-0.023,-0.0227,-0.0185,-0.0185,-0.0183,-0.0183,-0.0183,-0.0183,-0.0187,-0.0188,-0.0232,-0.0247,-0.0264,-0.0275,-0.0292,-0.0287,-0.0252,-0.0244,-0.0261,-0.0288,-0.0245,-0.0244,-0.0258,-0.0258,-0.0258,-0.0258,-0.0258,-0.0265,-0.0288,-0.03,-0.033,-0.0335,-0.0361,-0.0375,-0.0344,-0.0344,-0.031,-0.0304,-0.0228,-0.0246,-0.0261,-0.0261,-0.026,-0.026,-0.026,-0.0259,-0.0301,-0.0313,-0.0324,-0.0364,-0.0387,-0.039,-0.0424,-0.041,-0.0368,-0.0373,-0.0287,-0.0285,-0.0303,-0.0346,-0.0347,-0.0347,-0.0347,-0.0347,-0.0347,-0.0317,-0.0343,-0.0369,-0.0395,-0.0411,-0.0431,-0.0434,-0.0423,-0.0364,-0.0327,-0.0326,-0.0318,-0.0315,-0.0307,-0.0349,-0.0348,-0.0348,-0.0348,-0.0348,-0.0358,-0.0342,-0.0407,-0.0427,-0.0491,-0.0516,-0.0496,-0.0404,-0.0374,-0.032,-0.0294,-0.0295,-0.0274,-0.0272,-0.0263,-0.0291,-0.0291,-0.0291,-0.0291,-0.0367,-0.037,-0.0468,-0.0541,-0.06,-0.0587,-0.0505,-0.0362,-0.0266,-0.0256,-0.0258,-0.0228,-0.023,-0.0205,-0.0205,-0.0194,-0.0204,-0.0204,-0.0204,-0.0404,-0.0431,-0.0513,-0.0587,-0.0661,-0.065,-0.0491,-0.0227,-0.0158,-0.0205,-0.0286,-0.0276,-0.0234,-0.0237,-0.0198,-0.0199,-0.0181,0,0]}],[{"header":{"parameterUnit":"m.s-1","parameterCategory":2,"la1":30.2992,"la2":30.254,"lo1":-89.0895,"lo2":-89.0443,"dy":0.0025,"dx":0.0025,"nx":19,"ny":19,"refTime":"2026-05-24T03:00:00:Z","depth":"4","parameterNumber":2,"parameterNumberName":"U-component_of_CURRENTS"},"data":[0,0,0,-0.0405,-0.0409,-0.065,-0.0652,-0.0937,-0.0939,0,0,0,0,0,0,0,0,0,0,0,-0.0343,-0.0344,-0.0405,-0.0409,-0.065,-0.0652,-0.0936,-0.0939,0,0,0,0,0,0,0,0,0,0,0,-0.0342,-0.0344,-0.0345,-0.041,-0.065,-0.0652,-0.0936,-0.0771,0,0,0,0,0,0,0,0,0,0,-0.0545,-0.0471,-0.0343,-0.0345,-0.0411,-0.0649,-0.0652,-0.0764,-0.0781,-0.0806,0,-0.0833,0,-0.0862,-0.0953,-0.0953,0,0,0,-0.0457,-0.0457,-0.0511,-0.0345,-0.0412,-0.0649,-0.0555,-0.0774,-0.0794,-0.0829,-0.0837,-0.0847,-0.0867,-0.0954,-0.0955,-0.1152,-0.1152,0,0,-0.0443,-0.0403,-0.0498,-0.0523,-0.0461,-0.0547,-0.0561,-0.0787,-0.0806,-0.0838,-0.0854,-0.0871,-0.0956,-0.0957,-0.1151,-0.1152,0,0,0,-0.0373,-0.0393,-0.0445,-0.0511,-0.054,-0.0552,-0.057,-0.0797,-0.0811,-0.0857,-0.0875,-0.0957,-0.0959,-0.1151,-0.1151,-0.1131,0,0,0,-0.0368,-0.0349,-0.0438,-0.0419,-0.0535,-0.0672,-0.0575,-0.0797,-0.0822,-0.0873,-0.0957,-0.0961,-0.115,-0.1151,-0.113,-0.1106,0,0,0,-0.0334,-0.0346,-0.0367,-0.0416,-0.0496,-0.0669,-0.07,-0.0804,-0.083,-0.0954,-0.0962,-0.1149,-0.1151,-0.1129,-0.1106,-0.1069,0,0,0,-0.0296,-0.0319,-0.0366,-0.0394,-0.0493,-0.0592,-0.0699,-0.0842,-0.095,-0.0958,-0.115,-0.1151,-0.1129,-0.1105,-0.107,-0.081,0,0,0,-0.0297,-0.0319,-0.0331,-0.0377,-0.044,-0.0563,-0.0656,-0.0869,-0.0974,-0.1081,-0.1087,-0.113,-0.1106,-0.107,-0.0893,0,0,0,0,-0.0311,-0.0325,-0.0347,-0.0402,-0.0481,-0.0607,-0.0774,-0.086,-0.1062,-0.1033,-0.1163,-0.1149,-0.1126,-0.0979,-0.1158,-0.1158,-0.1157,-0.1157,-0.1157,-0.0288,-0.0323,-0.035,-0.0418,-0.0491,-0.0664,-0.0773,-0.0933,-0.1022,-0.113,-0.1157,-0.115,-0.0998,-0.1195,-0.1195,-0.1195,-0.1195,-0.1195,-0.1195,-0.027,-0.0286,-0.035,-0.04,-0.0526,-0.0651,-0.0837,-0.0953,-0.1074,-0.1163,-0.1142,-0.1,-0.1193,-0.1194,-0.1194,-0.1194,-0.1194,-0.1194,-0.1194,-0.0246,-0.026,-0.0298,-0.037,-0.0521,-0.0692,-0.0782,-0.0962,-0.1083,-0.1088,-0.0936,-0.1127,-0.1097,-0.1096,-0.1095,-0.1095,-0.1095,-0.1095,-0.1095,-0.0211,-0.0238,-0.0261,-0.0349,-0.0424,-0.0576,-0.0783,-0.0792,-0.0922,-0.0878,-0.1095,-0.1116,-0.1119,-0.1092,-0.1091,-0.1092,-0.1092,-0.1092,-0.1093,-0.0182,-0.0198,-0.0201,-0.0234,-0.0331,-0.0406,-0.0571,-0.0567,-0.0539,-0.0482,-0.0746,-0.0764,-0.0736,-0.0749,-0.0708,-0.0592,-0.0588,-0.0585,0,-0.0162,-0.0168,-0.0155,-0.0152,-0.0161,-0.0301,-0.0201,-0.0225,-0.0365,-0.0415,-0.0544,-0.085,-0.086,-0.0837,-0.0842,-0.0796,0,0,0,-0.0138,-0.014,-0.0113,-0.011,-0.0112,-0.0124,-0.0192,-0.0179,-0.0383,-0.0192,-0.0499,-0.0522,-0.067,-0.108,-0.1081,-0.1085,-0.1041,0,0]},{"header":{"parameterUnit":"m.s-1","parameterCategory":2,"la1":30.2992,"la2":30.254,"lo1":-89.0895,"lo2":-89.0443,"dy":0.0025,"dx":0.0025,"nx":19,"ny":19,"refTime":"2026-05-24T03:00:00:Z","depth":"4","parameterNumber":3,"parameterNumberName":"V-component_of_CURRENTS"},"data":[0,0,0,-0.0136,-0.0138,-0.0224,-0.0225,-0.028,-0.028,0,0,0,0,0,0,0,0,0,0,0,-0.0102,-0.0103,-0.0136,-0.0138,-0.0224,-0.0225,-0.028,-0.028,0,0,0,0,0,0,0,0,0,0,0,-0.0102,-0.0102,-0.0103,-0.0138,-0.0224,-0.0225,-0.028,-0.0229,0,0,0,0,0,0,0,0,0,0,-0.0152,-0.0131,-0.0102,-0.0103,-0.0139,-0.0224,-0.0225,-0.0227,-0.0232,-0.0225,0,-0.0238,0,-0.0261,-0.0283,-0.0283,0,0,0,-0.0139,-0.0127,-0.0148,-0.0103,-0.014,-0.0224,-0.0186,-0.023,-0.0236,-0.0232,-0.0239,-0.0242,-0.0262,-0.0283,-0.0283,-0.0342,-0.0343,0,0,-0.0134,-0.012,-0.0144,-0.0151,-0.0161,-0.0183,-0.0188,-0.0234,-0.0239,-0.024,-0.0244,-0.0263,-0.0283,-0.0284,-0.0342,-0.0342,0,0,0,-0.012,-0.0117,-0.0138,-0.0148,-0.0169,-0.0185,-0.0192,-0.0238,-0.0244,-0.0245,-0.0264,-0.0284,-0.0284,-0.0342,-0.0342,-0.0357,0,0,0,-0.0117,-0.0109,-0.0135,-0.0128,-0.0168,-0.0213,-0.0194,-0.0241,-0.0247,-0.0263,-0.0284,-0.0284,-0.0341,-0.0342,-0.0356,-0.0369,0,0,0,-0.0098,-0.0107,-0.0116,-0.0127,-0.0164,-0.0213,-0.0223,-0.0243,-0.0258,-0.0283,-0.0284,-0.0341,-0.0342,-0.0354,-0.0367,-0.036,0,0,0,-0.0082,-0.0114,-0.0115,-0.0167,-0.0164,-0.0253,-0.0223,-0.0279,-0.0306,-0.0284,-0.0341,-0.0342,-0.0354,-0.0366,-0.0359,-0.0306,0,0,0,-0.0116,-0.0118,-0.0152,-0.0156,-0.0249,-0.0241,-0.033,-0.0338,-0.0313,-0.0321,-0.0323,-0.0356,-0.0367,-0.036,-0.036,0,0,0,0,-0.016,-0.018,-0.0212,-0.0264,-0.0319,-0.0366,-0.0386,-0.0375,-0.0364,-0.0332,-0.037,-0.0377,-0.0372,-0.0339,-0.0346,-0.0346,-0.0346,-0.0346,-0.0346,-0.0182,-0.0223,-0.0291,-0.0348,-0.0402,-0.0456,-0.0474,-0.0458,-0.0426,-0.041,-0.04,-0.0421,-0.0389,-0.0407,-0.0408,-0.0408,-0.0408,-0.0408,-0.0408,-0.0233,-0.028,-0.0332,-0.0412,-0.0471,-0.0537,-0.0542,-0.0511,-0.0475,-0.044,-0.0433,-0.0371,-0.041,-0.0409,-0.0409,-0.0409,-0.0409,-0.0409,-0.0408,-0.0249,-0.028,-0.0326,-0.0428,-0.0512,-0.0564,-0.058,-0.0552,-0.0489,-0.0477,-0.0408,-0.043,-0.0415,-0.0447,-0.0447,-0.0447,-0.0447,-0.0448,-0.0448,-0.0249,-0.0296,-0.0354,-0.0449,-0.0503,-0.0553,-0.0581,-0.0559,-0.0507,-0.0428,-0.0461,-0.0434,-0.0432,-0.0418,-0.0448,-0.0448,-0.0448,-0.0448,-0.0448,-0.0289,-0.0297,-0.0366,-0.0418,-0.0514,-0.0537,-0.0567,-0.0527,-0.0485,-0.0428,-0.0402,-0.0404,-0.039,-0.039,-0.0373,-0.0391,-0.0391,-0.039,0,-0.0302,-0.0316,-0.0386,-0.0439,-0.048,-0.0524,-0.0467,-0.0463,-0.0423,-0.0392,-0.0476,-0.0449,-0.0448,-0.0436,-0.0435,-0.0418,0,0,0,-0.0329,-0.0338,-0.0384,-0.0433,-0.0475,-0.044,-0.0453,-0.0435,-0.0406,-0.04,-0.0376,-0.0379,-0.0478,-0.045,-0.0434,-0.0432,-0.0408,0,0]}]]